CW8593 Gava ES current weather conditions

sailwx.info

Wind from 275 at 3 knots gusting 10

Air temperature 13.9° C
Dewpoint -3.0° C

Last reported at 2017-Dec-17 13:04 UTC.
Time now 2017-Dec-17 14:09 UTC

Location: N 41°18' E 001°60'.
View on Google Maps.

See reports from other nearby stations

  
Tides and Currents Weather Stations Pressure Air Temp Water Temp Dewpoint Dewpoint Depression Visibility Wind Speed Wind Dir Waves Ship Positions
date/time (UTC)wind fromknots sea level pressurealtimeterstation pressurevisibilityair tempwater tempwave heightnotes
2017-Dec-17 13:04 275 3 gusting 10 13.9
2017-Dec-17 12:55 302 4 gusting 9 13.9
2017-Dec-17 12:46 296 2 gusting 11 13.3
2017-Dec-17 12:37 010 2 gusting 6 13.3
2017-Dec-17 12:28 329 1 gusting 6 13.9
2017-Dec-17 12:19 235 0 gusting 6 13.3
2017-Dec-17 12:10 108 0 gusting 3 12.8
2017-Dec-17 12:01 109 0 gusting 6 12.8
2017-Dec-17 11:52 110 0 gusting 1 12.8
2017-Dec-17 11:43 109 0 gusting 3 12.2
2017-Dec-17 11:34 115 1 gusting 4 11.7
2017-Dec-17 11:25 147 2 gusting 6 11.7
2017-Dec-17 11:16 163 3 gusting 6 11.7
2017-Dec-17 11:07 143 2 gusting 8 11.1
2017-Dec-17 10:58 148 2 gusting 6 11.7
2017-Dec-17 10:49 147 1 gusting 6 11.1
2017-Dec-17 10:40 128 0 gusting 5 11.7
2017-Dec-17 10:31 128 1 gusting 4 11.1
2017-Dec-17 10:22 125 1 gusting 4 10.6
2017-Dec-17 10:13 119 1 gusting 4 10.6
2017-Dec-17 10:04 119 0 gusting 6 10.6
2017-Dec-17 09:55 240 0 gusting 6 11.1
2017-Dec-17 09:46 265 0 gusting 6 10.6
2017-Dec-17 09:37 114 10.0
2017-Dec-17 09:28 088 0 gusting 2 10.0
2017-Dec-17 09:19 088 0 gusting 4 9.4
2017-Dec-17 09:10 086 2 gusting 5 9.4
2017-Dec-17 09:01 040 1 gusting 6 9.4
2017-Dec-17 08:52 301 3 gusting 5 10.0
2017-Dec-17 08:43 292 3 gusting 7 9.4
2017-Dec-17 08:34 345 0 gusting 5 8.9
2017-Dec-17 08:25 006 0 gusting 4 8.3
2017-Dec-17 08:16 021 1 gusting 4 7.8
2017-Dec-17 08:07 004 0 gusting 6 7.8
2017-Dec-17 07:58 236 7.8
2017-Dec-17 07:49 234 7.2
2017-Dec-17 07:40 234 6.7
2017-Dec-17 07:31 235 6.1
2017-Dec-17 07:22 269 5.6
2017-Dec-17 07:13 277 5.0
2017-Dec-17 07:04 277 5.0
2017-Dec-17 06:55 276 5.0
2017-Dec-17 06:46 276 0 gusting 3 5.0
2017-Dec-17 06:37 269 1 gusting 4 5.6
2017-Dec-17 06:28 235 0 gusting 4 6.1
2017-Dec-17 06:19 146 5.0
2017-Dec-17 06:10 5.0
2017-Dec-17 06:01 146 5.0
2017-Dec-17 05:52 145 1 gusting 2 5.0
2017-Dec-17 05:43 135 1 gusting 7 4.4
2017-Dec-17 05:34 356 2 gusting 6 7.2
2017-Dec-17 05:25 314 4 gusting 6 7.2
2017-Dec-17 05:16 303 3 gusting 10 7.2
2017-Dec-17 05:07 349 0 gusting 7 7.2
2017-Dec-17 04:58 041 7.2
2017-Dec-17 04:49 023 0 gusting 2 7.8
2017-Dec-17 04:40 353 0 gusting 4 8.3
2017-Dec-17 04:31 335 2 gusting 5 8.3
2017-Dec-17 04:22 305 2 gusting 5 8.3
2017-Dec-17 04:13 307 1 gusting 9 8.9
2017-Dec-17 04:04 317 1 gusting 4 8.9
2017-Dec-17 03:55 292 2 gusting 6 8.9
2017-Dec-17 03:46 296 1 gusting 6 8.9
2017-Dec-17 03:37 316 2 gusting 8 8.9
2017-Dec-17 03:28 335 2 gusting 7 8.9
2017-Dec-17 03:19 309 2 gusting 7 8.9
2017-Dec-17 03:10 319 1 gusting 6 9.4
2017-Dec-17 03:01 326 2 gusting 6 9.4
2017-Dec-17 02:52 342 2 gusting 7 8.9
2017-Dec-17 02:43 318 1 gusting 6 8.9
2017-Dec-17 02:34 324 1 gusting 6 8.9
2017-Dec-17 02:25 313 2 gusting 6 8.9
2017-Dec-17 02:16 298 1 gusting 5 8.9
2017-Dec-17 02:07 290 2 gusting 6 8.9
2017-Dec-17 01:58 296 2 gusting 6 8.9
2017-Dec-17 01:49 311 2 gusting 6 8.9
2017-Dec-17 01:40 318 1 gusting 5 8.3
2017-Dec-17 01:31 307 3 gusting 6 8.9
2017-Dec-17 01:22 308 5 gusting 8 8.9
2017-Dec-17 01:13 300 4 gusting 8 8.9
2017-Dec-17 01:04 309 3 gusting 7 8.9
2017-Dec-17 00:55 309 5 gusting 8 8.9
2017-Dec-17 00:46 313 5 gusting 8 8.9
2017-Dec-17 00:37 310 6 gusting 9 8.3
2017-Dec-17 00:28 309 5 gusting 9 8.3
2017-Dec-17 00:19 310 3 gusting 6 8.3
2017-Dec-17 00:10 312 2 gusting 4 7.8
2017-Dec-17 00:01 310 3 gusting 5 8.3
2017-Dec-16 23:52 310 2 gusting 5 8.3
2017-Dec-16 23:43 310 3 gusting 5 8.3
2017-Dec-16 23:34 311 3 gusting 6 8.3
2017-Dec-16 23:25 310 5 gusting 7 8.9
2017-Dec-16 23:16 309 5 gusting 8 8.9
2017-Dec-16 23:07 306 3 gusting 8 8.9
2017-Dec-16 22:58 314 3 gusting 6 8.9
2017-Dec-16 22:49 312 3 gusting 7 8.9
2017-Dec-16 22:40 320 3 gusting 6 8.9
2017-Dec-16 22:31 311 4 gusting 6 8.9
2017-Dec-16 22:22 310 3 gusting 7 8.3
2017-Dec-16 22:13 322 3 gusting 6 7.8
2017-Dec-16 22:04 324 1 gusting 6 7.2
2017-Dec-16 21:55 307 2 gusting 3 7.8
2017-Dec-16 21:46 306 5 gusting 7 8.3
2017-Dec-16 21:37 309 3 gusting 7 8.3
2017-Dec-16 21:28 310 2 gusting 6 8.3
2017-Dec-16 21:19 315 1 gusting 5 8.3
2017-Dec-16 21:10 316 8.3
2017-Dec-16 21:01 316 8.9
2017-Dec-16 20:52 316 9.4
2017-Dec-16 20:43 316 1 gusting 1 9.4
2017-Dec-16 20:34 312 4 gusting 6 9.4
2017-Dec-16 20:25 308 2 gusting 7 10.0
2017-Dec-16 20:16 314 0 gusting 3 9.4
2017-Dec-16 20:07 313 1 gusting 3 10.0
2017-Dec-16 19:58 314 2 gusting 4 10.0
2017-Dec-16 19:49 317 2 gusting 5 10.6
2017-Dec-16 19:40 316 1 gusting 5 10.6
2017-Dec-16 19:31 287 2 gusting 4 10.6
2017-Dec-16 19:22 288 3 gusting 6 10.6
2017-Dec-16 19:13 287 5 gusting 11 11.1
2017-Dec-16 19:04 283 3 gusting 8 11.1
2017-Dec-16 18:55 309 2 gusting 6 11.1
2017-Dec-16 18:46 305 6 gusting 8 11.1
2017-Dec-16 18:37 288 7 gusting 13 11.7
2017-Dec-16 18:28 292 5 gusting 13 11.7
2017-Dec-16 18:19 303 6 gusting 10 11.7
2017-Dec-16 18:10 293 7 gusting 13 11.7
2017-Dec-16 18:01 291 7 gusting 13 11.7
2017-Dec-16 17:52 298 6 gusting 11 11.7
2017-Dec-16 17:43 300 6 gusting 13 11.7
2017-Dec-16 17:34 294 7 gusting 12 11.7
2017-Dec-16 17:25 296 9 gusting 16 11.7
2017-Dec-16 17:16 292 9 gusting 17 12.2
2017-Dec-16 17:07 289 10 gusting 18 12.2
2017-Dec-16 16:58 290 9 gusting 17 11.7
2017-Dec-16 16:49 292 9 gusting 16 12.2
2017-Dec-16 16:40 293 9 gusting 18 12.2
2017-Dec-16 16:31 292 7 gusting 15 12.2
2017-Dec-16 16:22 290 8 gusting 13 12.2
2017-Dec-16 16:13 288 7 gusting 15 12.2
2017-Dec-16 16:04 288 6 gusting 12 12.2
2017-Dec-16 15:55 290 5 gusting 11 12.2
2017-Dec-16 15:46 304 4 gusting 9 12.8
2017-Dec-16 15:37 312 4 gusting 13 12.8
2017-Dec-16 15:28 307 4 gusting 9 13.3
2017-Dec-16 15:19 298 5 gusting 9 13.3
2017-Dec-16 15:10 298 5 gusting 11 13.3
2017-Dec-16 15:01 305 5 gusting 10 13.3
2017-Dec-16 14:52 299 5 gusting 13 13.3
2017-Dec-16 14:43 290 5 gusting 10 13.3
2017-Dec-16 14:34 305 5 gusting 13 13.3
2017-Dec-16 14:25 324 3 gusting 13 13.3
2017-Dec-16 14:16 345 5 gusting 11 13.9
2017-Dec-16 14:07 317 5 gusting 13 13.3
2017-Dec-16 13:58 313 5 gusting 8 13.9
2017-Dec-16 13:49 339 5 gusting 12 13.3
2017-Dec-16 13:40 343 6 gusting 11 13.9
2017-Dec-16 13:31 349 5 gusting 12 13.3
2017-Dec-16 13:22 342 3 gusting 12 13.3
2017-Dec-16 13:13 044 2 gusting 6 13.3
2017-Dec-16 13:04 003 5 gusting 9 13.3
2017-Dec-16 12:55 009 6 gusting 16 12.8
2017-Dec-16 12:46 359 6 gusting 13 12.8
2017-Dec-16 12:37 012 5 gusting 13 12.8
2017-Dec-16 12:28 011 5 gusting 9 12.8
2017-Dec-16 12:19 358 5 gusting 12 12.2
2017-Dec-16 12:10 344 6 gusting 10 12.8
2017-Dec-16 12:01 009 5 gusting 13 12.2
2017-Dec-16 11:52 005 4 gusting 10 12.8
2017-Dec-16 11:43 011 4 gusting 13 12.2
2017-Dec-16 11:34 353 1 gusting 9 12.2
2017-Dec-16 11:25 299 5 gusting 8 12.2
2017-Dec-16 11:16 283 5 gusting 11 11.7
2017-Dec-16 11:07 299 3 gusting 11 11.7
2017-Dec-16 10:58 314 3 gusting 8 11.7
2017-Dec-16 10:49 356 2 gusting 8 11.7
2017-Dec-16 10:40 012 1 gusting 6 11.7
2017-Dec-16 10:31 306 3 gusting 6 11.7
2017-Dec-16 10:22 290 4 gusting 6 11.1
2017-Dec-16 10:13 281 3 gusting 8 11.1
2017-Dec-16 10:04 280 2 gusting 6 11.7
2017-Dec-16 09:55 289 1 gusting 6 11.1
2017-Dec-16 09:46 320 4 gusting 9 11.1
2017-Dec-16 09:37 302 4 gusting 10 10.6
2017-Dec-16 09:28 299 5 gusting 13 10.6
2017-Dec-16 09:19 296 7 gusting 13 10.0
2017-Dec-16 09:10 294 8 gusting 18 9.4
2017-Dec-16 09:01 290 7 gusting 18 9.4
2017-Dec-16 08:52 291 6 gusting 12 9.4
2017-Dec-16 08:43 306 6 gusting 13 8.9
2017-Dec-16 08:34 310 6 gusting 13 8.9
2017-Dec-16 08:25 295 6 gusting 13 8.9
2017-Dec-16 08:16 295 7 gusting 14 8.9
2017-Dec-16 08:07 299 9 gusting 13 8.3
2017-Dec-16 07:58 289 9 gusting 17 8.3
2017-Dec-16 07:49 291 7 gusting 13 8.3
2017-Dec-16 07:40 294 8 gusting 14 7.8
2017-Dec-16 07:31 293 8 gusting 14 7.8
2017-Dec-16 07:22 295 7 gusting 14 7.2
2017-Dec-16 07:13 294 10 gusting 15 7.2
2017-Dec-16 07:04 286 12 gusting 17 7.8
2017-Dec-16 06:55 284 9 gusting 19 7.8
2017-Dec-16 06:46 284 6 gusting 14 7.2
2017-Dec-16 06:37 328 4 gusting 9 7.2
2017-Dec-16 06:28 340 2 gusting 6 7.8
2017-Dec-16 06:19 314 4 gusting 7 7.8
2017-Dec-16 06:10 309 2 gusting 9 7.2
2017-Dec-16 06:01 354 0 gusting 7 7.2
2017-Dec-16 05:52 039 1 gusting 4 7.2
2017-Dec-16 05:43 026 1 gusting 6 6.7
2017-Dec-16 05:34 326 2 gusting 5 7.2
2017-Dec-16 05:25 002 2 gusting 5 7.2
2017-Dec-16 05:16 004 4 gusting 8 6.7
2017-Dec-16 05:07 025 2 gusting 8 7.2
2017-Dec-16 04:58 355 2 gusting 6 8.3
2017-Dec-16 04:49 335 3 gusting 9 8.3
2017-Dec-16 04:40 314 4 gusting 10 8.3
2017-Dec-16 04:31 310 3 gusting 10 8.3
2017-Dec-16 04:22 342 3 gusting 10 8.3
2017-Dec-16 04:13 347 2 gusting 8 8.9
2017-Dec-16 04:04 348 3 gusting 10 8.9
2017-Dec-16 03:55 322 4 gusting 10 8.9
2017-Dec-16 03:46 318 6 gusting 9 8.3
2017-Dec-16 03:37 315 6 gusting 12 8.3
2017-Dec-16 03:28 310 6 gusting 10 8.3
2017-Dec-16 03:19 313 5 gusting 12 8.3
2017-Dec-16 03:10 307 4 gusting 9 8.3
2017-Dec-16 03:01 303 5 gusting 9 8.3
2017-Dec-16 02:52 287 6 gusting 9 8.9
2017-Dec-16 02:43 288 6 gusting 12 8.9
2017-Dec-16 02:34 289 6 gusting 12 8.9
2017-Dec-16 02:25 296 5 gusting 11 8.9
2017-Dec-16 02:16 303 6 gusting 9 9.4
2017-Dec-16 02:07 286 4 gusting 9 9.4
2017-Dec-16 01:58 297 3 gusting 7 9.4
2017-Dec-16 01:49 313 2 gusting 6 9.4
2017-Dec-16 01:40 328 0 gusting 5 9.4
2017-Dec-16 01:31 335 1 gusting 5 8.9
2017-Dec-16 01:22 357 0 gusting 6 9.4
2017-Dec-16 01:13 095 2 gusting 4 8.9
2017-Dec-16 01:04 097 3 gusting 8 8.9
2017-Dec-16 00:55 095 3 gusting 7 8.3
2017-Dec-16 00:46 066 4 gusting 9 8.3
2017-Dec-16 00:37 299 6 gusting 12 9.4
2017-Dec-16 00:28 298 5 gusting 14 9.4
2017-Dec-16 00:19 307 2 gusting 13 9.4
2017-Dec-16 00:10 334 1 gusting 6 8.9
2017-Dec-16 00:01 298 2 gusting 6 8.9
2017-Dec-15 23:52 269 1 gusting 5 8.3
2017-Dec-15 23:43 257 8.3
2017-Dec-15 23:34 257 0 gusting 2 8.3
2017-Dec-15 23:25 250 8.3
2017-Dec-15 23:16 169 1 gusting 2 8.3
2017-Dec-15 23:07 163 0 gusting 3 8.3
2017-Dec-15 22:58 114 8.9
2017-Dec-15 22:49 113 0 gusting 3 8.9
2017-Dec-15 22:40 092 1 gusting 6 8.9
2017-Dec-15 22:31 046 0 gusting 4 9.4
2017-Dec-15 22:22 335 9.4
2017-Dec-15 22:13 299 8.9
2017-Dec-15 22:04 298 8.9
2017-Dec-15 21:55 296 0 gusting 1 9.4
2017-Dec-15 21:46 296 0 gusting 3 9.4
2017-Dec-15 21:37 296 2 gusting 3 10.0
2017-Dec-15 21:28 318 2 gusting 6 10.6
2017-Dec-15 21:19 041 1 gusting 4 9.4
2017-Dec-15 21:10 079 10.0
2017-Dec-15 21:01 079 10.0
2017-Dec-15 20:52 073 2 gusting 5 10.6
2017-Dec-15 20:43 050 1 gusting 5 10.6
2017-Dec-15 20:34 068 0 gusting 4 10.6
2017-Dec-15 20:25 069 0 gusting 2 10.0
2017-Dec-15 20:16 069 0 gusting 4 10.0
2017-Dec-15 20:07 328 2 gusting 4 9.4
2017-Dec-15 19:58 322 2 gusting 6 9.4
2017-Dec-15 19:49 004 0 gusting 4 10.0
2017-Dec-15 19:40 035 0 gusting 3 11.1
2017-Dec-15 19:31 276 10.6
2017-Dec-15 19:22 276 10.6
2017-Dec-15 19:13 276 0 gusting 3 10.6
2017-Dec-15 19:04 274 10.0
2017-Dec-15 18:55 10.6
2017-Dec-15 18:46 275 1 gusting 3 11.1
2017-Dec-15 18:37 270 0 gusting 4 11.1
2017-Dec-15 18:28 267 11.1
2017-Dec-15 18:19 11.7
2017-Dec-15 18:10 266 2 gusting 6 11.7
2017-Dec-15 18:01 271 1 gusting 7 11.7
2017-Dec-15 17:52 270 1 gusting 5 11.7
2017-Dec-15 17:43 306 1 gusting 6 12.2
2017-Dec-15 17:34 355 2 gusting 4 11.7
2017-Dec-15 17:25 012 2 gusting 6 12.2
2017-Dec-15 17:16 108 2 gusting 6 12.2
2017-Dec-15 17:07 112 3 gusting 6 12.2
2017-Dec-15 16:58 106 2 gusting 6 12.8
2017-Dec-15 16:49 074 2 gusting 5 12.8
2017-Dec-15 16:40 342 2 gusting 6 13.3
2017-Dec-15 16:31 294 5 gusting 9 13.3
2017-Dec-15 16:22 294 4 gusting 10 13.3
2017-Dec-15 16:13 296 3 gusting 8 13.3
2017-Dec-15 16:04 315 1 gusting 6 13.9
2017-Dec-15 15:55 111 1 gusting 4 14.4
2017-Dec-15 15:46 109 1 gusting 6 14.4
2017-Dec-15 15:37 106 5 gusting 7 14.4
2017-Dec-15 15:28 079 4 gusting 12 13.9
2017-Dec-15 15:19 155 2 gusting 9 15.0
2017-Dec-15 15:10 258 3 gusting 7 15.6
2017-Dec-15 15:01 275 6 gusting 15 15.6
2017-Dec-15 14:52 289 6 gusting 13 15.6
2017-Dec-15 14:43 281 6 gusting 14 15.6
2017-Dec-15 14:34 287 8 gusting 15 15.6
2017-Dec-15 14:25 287 7 gusting 18 15.6
2017-Dec-15 14:16 286 8 gusting 16 15.6
2017-Dec-15 14:07 291 7 gusting 16 15.6